"Pseudo-MPEC" for P21DG5X

Created 2023 Apr 8 17:22:06 UT using Find_Orb

Click here for an explanation of pseudo-MPECs

 
 Astrometry: 
     P21DG5X* C2023 03 19^$yZ%,dK+p$:s*j/^mMw2gmpN85uQu3UO25TrSZAstrometry$I^F52
     P21DG5X  C2023 03 19rvi,'c3%vLFNd5I;redacted;d\J:H9Hul(yoAKldBRk+eclickpF52
     P21DG5X  C2023 03 19[@C[naqrW[.[OWuxRgZ+7!0)eR5W^'s@$Ui@LaQao27-i2OIqfK\F52
     P21DG5X  C2023 03 19Ij4^GL8)F3-UV'[here=XBfk3GforRVY[+G+gJuU.C(!(hg7DoraF52
     P21DG5X  C2023 03 19Mn'r\N%8b`GbI42ECuB%vHexplanationad5x.^pIfe*8!3=9O$XF52

Station data:
(F52) Pan-STARRS 2, Haleakala  (N20.707382 W156.255910)  US/Hawaii.
   Observers J. Bulger, T. Dukes, T. Lowe, A. Schultz, M. Willman. Measurers
   K. Chambers, S. Chastel, T. de Boer, L. Denneau, J. Fairlamb, H.
   Flewelling, M. Huber, C.-C. Lin, E. Magnier, Y. Ramanjooloo, R. Wainscoat,
   R. Weryk. 1.8-m Ritchey-Chrétien + CCD.

Orbital elements:  P21DG5X
   Perihelion 2022 Jun 16.06720 +/- 286 TT =  1:36:45 (JD 2459746.56720)
Epoch 2023 Mar 20.0 TT = JDT 2460023.5   Earth MOID: 0.6482      AutoNEOCP
M 112.35610069 +/- 80               (J2000 ecliptic)
n   0.40571611 +/- 0.216            Peri.  257.52396 +/- 80
a   1.80712368 +/- 0.642            Node   147.08198 +/- 14
e   0.1483472 +/- 0.264             Incl.   22.37917 +/- 28
P   2.43/887.30d           H 20.13  G  0.15   U 11.7  SR
q 1.53904183 +/- 0.836    Q 2.07520554 +/- 25.8
From 5 observations 2023 Mar. 19 (2.7 hr); mean residual 0".12
Residuals in arcseconds: 
230319 F52  .07-  .04+    230319 F52  .02+  .13-    230319 F52  .20+  .06-    
230319 F52  .07+  .05+    230319 F52  .22-  .10+    

Ephemerides (geocentric):
Date (UTC) HH   RA             Dec           delta  r     elong  mag " sig PA
---- --------  ------------   ------------  ------ ------ -----  --- --------
2023 04 08 17  11 02 54.168   +27 47 00.30  1.1379 1.9689 133.9 23.0 3643  47
2023 04 08 18  11 02 53.175   +27 47 14.89  1.1383 1.9690 133.8 23.0 3655  47
2023 04 08 19  11 02 52.186   +27 47 29.42  1.1387 1.9690 133.8 23.0 3668  47
2023 04 08 20  11 02 51.201   +27 47 43.90  1.1391 1.9691 133.8 23.0 3681  47
2023 04 08 21  11 02 50.219   +27 47 58.34  1.1394 1.9692 133.7 23.0 3694  47
2023 04 08 22  11 02 49.240   +27 48 12.72  1.1398 1.9692 133.7 23.0 3707  47
2023 04 08 23  11 02 48.266   +27 48 27.05  1.1402 1.9693 133.6 23.0 3720  47
2023 04 09 00  11 02 47.295   +27 48 41.33  1.1406 1.9693 133.6 23.0 3733  47
2023 04 09 01  11 02 46.328   +27 48 55.56  1.1409 1.9694 133.6 23.0 3746  47
2023 04 09 02  11 02 45.364   +27 49 09.74  1.1413 1.9695 133.5 23.0 3759  47
2023 04 09 03  11 02 44.404   +27 49 23.88  1.1417 1.9695 133.5 23.0 3772  47
2023 04 09 04  11 02 43.448   +27 49 37.96  1.1421 1.9696 133.4 23.0 3785  47
2023 04 09 05  11 02 42.495   +27 49 51.99  1.1424 1.9696 133.4 23.0 3798  47
2023 04 09 06  11 02 41.546   +27 50 05.96  1.1428 1.9697 133.3 23.0 3811  47
2023 04 09 07  11 02 40.601   +27 50 19.89  1.1432 1.9697 133.3 23.0 3824  47
2023 04 09 08  11 02 39.660   +27 50 33.77  1.1436 1.9698 133.3 23.0 3837  47
2023 04 09 09  11 02 38.722   +27 50 47.60  1.1440 1.9699 133.2 23.0 3850  47
2023 04 09 10  11 02 37.788   +27 51 01.38  1.1443 1.9699 133.2 23.0 3863  47
2023 04 09 11  11 02 36.857   +27 51 15.11  1.1447 1.9700 133.1 23.0 3876  47
2023 04 09 12  11 02 35.931   +27 51 28.79  1.1451 1.9700 133.1 23.0 3889  47
2023 04 09 13  11 02 35.007   +27 51 42.42  1.1455 1.9701 133.1 23.0 3903  47
2023 04 09 14  11 02 34.088   +27 51 56.00  1.1459 1.9701 133.0 23.0 3916  47
2023 04 09 15  11 02 33.172   +27 52 09.53  1.1462 1.9702 133.0 23.0 3929  47
2023 04 09 16  11 02 32.260   +27 52 23.01  1.1466 1.9703 132.9 23.0 3942  47
2023 04 09 17  11 02 31.352   +27 52 36.44  1.1470 1.9703 132.9 23.0 3955  47
2023 04 09 18  11 02 30.447   +27 52 49.82  1.1474 1.9704 132.8 23.0 3968  47
2023 04 09 19  11 02 29.546   +27 53 03.15  1.1478 1.9704 132.8 23.0 3982  47
2023 04 09 20  11 02 28.649   +27 53 16.43  1.1481 1.9705 132.8 23.0 3995  47
2023 04 09 21  11 02 27.755   +27 53 29.66  1.1485 1.9705 132.7 23.0 4008  47
2023 04 09 22  11 02 26.866   +27 53 42.85  1.1489 1.9706 132.7 23.0 4021  47
2023 04 09 23  11 02 25.979   +27 53 55.98  1.1493 1.9707 132.6 23.0 4035  47
2023 04 10 00  11 02 25.097   +27 54 09.06  1.1497 1.9707 132.6 23.0 4048  47
2023 04 10 01  11 02 24.218   +27 54 22.09  1.1501 1.9708 132.6 23.0 4061  47
2023 04 10 02  11 02 23.343   +27 54 35.08  1.1504 1.9708 132.5 23.0 4075  47
2023 04 10 03  11 02 22.471   +27 54 48.01  1.1508 1.9709 132.5 23.0 4088  47
2023 04 10 04  11 02 21.604   +27 55 00.90  1.1512 1.9709 132.4 23.0 4101  47
2023 04 10 05  11 02 20.740   +27 55 13.74  1.1516 1.9710 132.4 23.0 4115  47
2023 04 10 06  11 02 19.879   +27 55 26.52  1.1520 1.9711 132.4 23.0 4128  47
2023 04 10 07  11 02 19.023   +27 55 39.26  1.1524 1.9711 132.3 23.0 4141  47
2023 04 10 08  11 02 18.170   +27 55 51.95  1.1527 1.9712 132.3 23.0 4155  47
2023 04 10 09  11 02 17.320   +27 56 04.59  1.1531 1.9712 132.2 23.0 4168  47
2023 04 10 10  11 02 16.475   +27 56 17.18  1.1535 1.9713 132.2 23.0 4182  47
2023 04 10 11  11 02 15.633   +27 56 29.72  1.1539 1.9714 132.2 23.0 4195  47
2023 04 10 12  11 02 14.795   +27 56 42.21  1.1543 1.9714 132.1 23.0 4209  47
2023 04 10 13  11 02 13.960   +27 56 54.66  1.1547 1.9715 132.1 23.0 4222  47
2023 04 10 14  11 02 13.130   +27 57 07.05  1.1551 1.9715 132.0 23.0 4236  47
2023 04 10 15  11 02 12.303   +27 57 19.40  1.1554 1.9716 132.0 23.0 4249  47
2023 04 10 16  11 02 11.479   +27 57 31.69  1.1558 1.9716 131.9 23.0 4263  47